Leesburg, FL

6:28 AM EDT on June 23, 2017 (GMT -0400)
Leesburg Regional

Weather History for KLEE - November, 2013

Change the Weather History Date:

Saturday, November 2, 2013

  Actual Average Record
Temperature  
Mean Temperature 68 °F -  
Max Temperature 75 °F 79 °F 89 °F (2015)
Min Temperature 61 °F 59 °F 35 °F (1993)
Cooling Degree Days 4    
Growing Degree Days 18 (Base 50)    
Moisture  
Dew Point 67 °F    
Average Humidity 92    
Maximum Humidity 100    
Minimum Humidity 83    
Precipitation  
Precipitation 0.56 in - - ()
Sea Level Pressure  
Sea Level Pressure 29.90 in    
Wind  
Wind Speed 7 mph (West)    
Max Wind Speed 15 mph    
Max Gust Speed 25 mph    
Visibility 7 miles    
Events Rain    
Averages and records for this station are not official NWS values.
T = Trace of Precipitation, MM = Missing Value Source: NWS Daily Summary

Daily Weather History Graph

Daily Weather History Graph

Search for Another Location

Airport or City:

Trip Planner

Search our weather history database for the weather conditions in past years. The results will help you decide how hot, cold, wet, or windy it might be!

Date:

Astronomy

Nov. 02, 2013 Rise Set
Actual Time 7:40 AM EDT 6:40 PM EDT
Civil Twilight 7:15 AM EDT 7:05 PM EDT
Nautical Twilight 6:47 AM EDT 7:33 PM EDT
Astronomical Twilight 6:20 AM EDT 8:00 PM EDT
Moon 6:39 AM EDT (11/2) 6:09 PM EDT (11/2)
Length of Visible Light 11h 49m
Length of Day
11h 00m
Waning Crescent, 1% of the Moon is Illuminated
Nov 2
Waning Crescent
Nov 3
New
Nov 10
First Quarter
Nov 17
Full
Nov 25
Last Quarter

Hourly Weather History & Observations

Time (EDT) Temp. Dew Point Humidity Pressure Visibility Wind Dir Wind Speed Gust Speed Precip Events Conditions
12:53 AM 75.0 °F 71.1 °F 87% 29.91 in 10.0 mi SW 6.9 mph - N/A   Clear
1:53 AM 75.0 °F 70.0 °F 84% 29.88 in 10.0 mi SSW 8.1 mph - N/A   Clear
2:53 AM 73.9 °F 71.1 °F 91% 29.86 in 10.0 mi South 6.9 mph - N/A   Clear
3:53 AM 73.0 °F 71.1 °F 93% 29.85 in 10.0 mi SSW 6.9 mph - N/A   Clear
4:53 AM 73.0 °F 71.1 °F 93% 29.82 in 10.0 mi South 11.5 mph - N/A   Clear
5:53 AM 73.9 °F 71.1 °F 91% 29.84 in 10.0 mi SSW 11.5 mph - N/A   Scattered Clouds
6:53 AM 73.9 °F 72.0 °F 93% 29.85 in 10.0 mi SSW 6.9 mph - N/A   Mostly Cloudy
7:04 AM 73.4 °F 71.6 °F 94% 29.85 in 10.0 mi SSW 6.9 mph - N/A   Overcast
7:21 AM 73.4 °F 71.6 °F 94% 29.86 in 2.5 mi WNW 3.5 mph - 0.00 in Rain Heavy Rain
7:30 AM 73.4 °F 73.4 °F 100% 29.86 in 1.5 mi West 4.6 mph - N/A Rain Heavy Rain
7:37 AM 73.4 °F 73.4 °F 100% 29.86 in 1.8 mi SSW 5.8 mph - N/A Rain Heavy Rain
7:41 AM 73.4 °F 73.4 °F 100% 29.86 in 2.0 mi SSW 5.8 mph - N/A Rain Rain
7:51 AM 73.4 °F 73.4 °F 100% 29.86 in 3.0 mi SSW 5.8 mph - N/A Rain Light Rain
7:53 AM 73.0 °F 72.0 °F 96% 29.86 in 3.0 mi SW 5.8 mph - N/A Rain Light Rain
8:39 AM 73.4 °F 73.4 °F 100% 29.87 in 4.0 mi Variable 4.6 mph - N/A Rain Light Rain
8:49 AM 73.4 °F 73.4 °F 100% 29.87 in 2.5 mi SSW 3.5 mph - N/A Rain Light Rain
8:53 AM 73.9 °F 73.0 °F 97% 29.87 in 2.0 mi WSW 5.8 mph - N/A Rain Light Rain
9:00 AM 73.4 °F 71.6 °F 94% 29.88 in 3.0 mi WNW 11.5 mph 19.6 mph N/A Rain Light Rain
9:11 AM 68.0 °F 66.2 °F 94% 29.90 in 7.0 mi North 15.0 mph 25.3 mph N/A Rain Light Rain
9:16 AM 68.0 °F 66.2 °F 94% 29.90 in 10.0 mi North 15.0 mph - N/A   Overcast
9:27 AM 68.0 °F 64.4 °F 88% 29.92 in 10.0 mi NNW 15.0 mph - N/A   Overcast
9:53 AM 68.0 °F 66.0 °F 93% 29.91 in 10.0 mi NNW 9.2 mph - N/A   Overcast
10:53 AM 69.1 °F 66.0 °F 90% 29.92 in 8.0 mi Calm Calm - N/A Rain Light Rain
11:20 AM 66.2 °F 60.8 °F 83% 29.98 in 1.8 mi West 10.4 mph - N/A Rain Heavy Rain
11:46 AM 62.6 °F 60.8 °F 94% 29.98 in 3.0 mi WNW 9.2 mph - N/A Rain Rain
11:53 AM 62.1 °F 60.1 °F 93% 29.96 in 1.8 mi NNW 5.8 mph - N/A Rain Heavy Rain
12:00 PM 62.6 °F 60.8 °F 94% 29.95 in 3.0 mi Variable 3.5 mph - N/A Rain Rain
12:53 PM 64.9 °F 62.1 °F 90% 29.92 in 10.0 mi Calm Calm - N/A   Scattered Clouds
1:44 PM 66.2 °F 62.6 °F 88% 29.90 in 10.0 mi SSW 4.6 mph - N/A   Mostly Cloudy
1:53 PM 66.0 °F 62.1 °F 87% 29.90 in 10.0 mi South 5.8 mph - N/A   Mostly Cloudy
2:27 PM 66.2 °F 62.6 °F 88% 29.89 in 10.0 mi South 4.6 mph - N/A   Scattered Clouds
2:53 PM 66.9 °F 63.0 °F 87% 29.88 in 10.0 mi South 3.5 mph - 0.56 in Rain Light Rain
3:53 PM 68.0 °F 64.0 °F 87% 29.88 in 10.0 mi Calm Calm - 0.00 in   Unknown
4:53 PM 68.0 °F 64.9 °F 90% 29.88 in 10.0 mi Calm Calm - N/A   Unknown
5:04 PM 68.0 °F 64.4 °F 88% 29.89 in 10.0 mi WNW 3.5 mph - N/A   Overcast
5:53 PM 68.0 °F 64.9 °F 90% 29.91 in 10.0 mi NNW 3.5 mph - 0.00 in Rain Light Rain
6:05 PM 68.0 °F 64.4 °F 88% 29.91 in 10.0 mi North 5.8 mph - 0.00 in Rain Light Rain
6:53 PM 66.9 °F 62.1 °F 84% 29.93 in 10.0 mi North 4.6 mph - 0.00 in   Partly Cloudy
7:13 PM 66.2 °F 60.8 °F 83% 29.95 in 10.0 mi NNW 4.6 mph - N/A   Partly Cloudy
7:53 PM 66.0 °F 61.0 °F 84% 29.97 in 10.0 mi NW 4.6 mph - N/A   Clear
8:53 PM 64.9 °F 62.1 °F 90% 29.97 in 10.0 mi North 3.5 mph - N/A   Clear
9:53 PM 64.0 °F 62.1 °F 93% 29.98 in 10.0 mi North 3.5 mph - N/A   Clear
10:53 PM 62.1 °F 61.0 °F 96% 30.00 in 10.0 mi Calm Calm - N/A   Clear
11:53 PM 61.0 °F 60.1 °F 97% 30.01 in 2.5 mi Calm Calm - N/A   Clear